Weather History for Acapulco, Mexico

Change the Weather History Date:

Thursday, November 8, 2012

  Actual Average Record
Temperature  
Mean Temperature 85 °F -  
Max Temperature 95 °F 90 °F 95 °F (2012)
Min Temperature 75 °F 73 °F 69 °F (2010)
Cooling Degree Days 20    
Growing Degree Days 35 (Base 50)    
Moisture  
Dew Point 75 °F    
Average Humidity 76    
Maximum Humidity 94    
Minimum Humidity 47    
Precipitation  
Precipitation 0.00 in 0.05 in - ()
Sea Level Pressure  
Sea Level Pressure 29.88 in    
Wind  
Wind Speed 2 mph ()    
Max Wind Speed 9 mph    
Max Gust Speed -    
Visibility 8.2 miles    
Events      
Averages and records for this station are not official NWS values.
T = Trace of Precipitation, MM = Missing Value Source: Averaged Metar Reports

Daily Weather History Graph

Daily Weather History Graph

Search for Another Location

Airport:

Trip Planner

Search our weather history database for the weather conditions in past years. The results will help you decide how hot, cold, wet, or windy it might be!

Date:

Astronomy

Nov. 08, 2012 Rise Set
Actual Time 6:39 AM CST 6:05 PM CST
Civil Twilight 6:17 AM CST 6:27 PM CST
Nautical Twilight 5:51 AM CST 6:53 PM CST
Astronomical Twilight 5:25 AM CST 7:19 PM CST
Moon 1:27 AM CST (11/8) 2:02 PM CST (11/8)
Length of Visible Light 12h 10m
Length of Day
11h 25m
Waning Crescent, 32% of the Moon is Illuminated
Nov 8
Waning Crescent
Nov 13
New
Nov 20
First Quarter
Nov 28
Full
Dec 6
Last Quarter

Hourly Weather History & Observations

Time (CST) Temp. Heat Index Dew Point Humidity Pressure Visibility Wind Dir Wind Speed Gust Speed Precip Events Conditions
12:45 AM 80.6 °F 85.4 °F 73.4 °F 79% 29.89 in 8.0 mi Calm Calm - N/A   Scattered Clouds
1:45 AM 80.6 °F 85.4 °F 73.4 °F 79% 29.89 in 8.0 mi Calm Calm - N/A   Scattered Clouds
2:45 AM 78 °F - 76 °F 90% 29.88 in 6 mi East 2.2 mph - -   Scattered Clouds
2:45 AM 78.8 °F - 73.4 °F 83% 29.94 in 8.0 mi Calm Calm - N/A   Scattered Clouds
3:45 AM 78.8 °F - 73.4 °F 83% 29.89 in 8.0 mi Calm Calm - N/A   Scattered Clouds
4:45 AM 78.8 °F - 73.4 °F 83% 29.89 in 8.0 mi Calm Calm - N/A   Scattered Clouds
5:45 AM 77 °F - 76 °F 94% 29.89 in 6 mi NNW 2.2 mph - -   Scattered Clouds
5:45 AM 77.0 °F - 73.4 °F 89% 29.90 in 8.0 mi Calm Calm - N/A   Scattered Clouds
6:45 AM 77.0 °F - 73.4 °F 89% 29.90 in 8.0 mi Calm Calm - N/A   Scattered Clouds
7:43 AM 80.6 °F 86.2 °F 75.2 °F 84% 29.91 in 7.0 mi Calm Calm - N/A   Mostly Cloudy
8:46 AM 84.2 °F 92.3 °F 75.2 °F 74% 29.94 in 7.0 mi Calm Calm - N/A   Mostly Cloudy
8:50 AM 81 °F - 75 °F 76% 29.93 in 12 mi South 2.2 mph - -   Partly Cloudy
9:47 AM 84.2 °F 94.1 °F 77.0 °F 79% 29.93 in 7.0 mi Calm Calm - N/A   Mostly Cloudy
10:51 AM 87.8 °F 97.6 °F 75.2 °F 66% 29.92 in 8.0 mi Calm Calm - N/A   Mostly Cloudy
11:50 AM 92 °F - 74 °F 47% 29.89 in 12 mi NNW 4.5 mph - -   Scattered Clouds
11:50 AM 89.6 °F 99.8 °F 75.2 °F 62% 29.88 in 8.0 mi SSW 8.1 mph - N/A   Mostly Cloudy
12:45 PM 87.8 °F 97.6 °F 75.2 °F 66% 29.88 in 8.0 mi WSW 5.8 mph - N/A   Mostly Cloudy
1:45 PM 89.6 °F 99.8 °F 75.2 °F 62% 29.86 in 8.0 mi WSW 5.8 mph - N/A   Mostly Cloudy
2:42 PM 89.6 °F 99.8 °F 75.2 °F 62% 29.85 in 8.0 mi South 9.2 mph - N/A   Mostly Cloudy
2:45 PM 90 °F - 77 °F 58% 29.83 in 12 mi NE 6.7 mph - -   Partly Cloudy
3:45 PM 87.8 °F 97.6 °F 75.2 °F 66% 29.83 in 8.0 mi SSW 8.1 mph - N/A   Mostly Cloudy
4:42 PM 87.8 °F 97.6 °F 75.2 °F 66% 29.83 in 8.0 mi SSW 5.8 mph - N/A   Mostly Cloudy
5:43 PM 86.0 °F 96.9 °F 77.0 °F 74% 29.84 in 8.0 mi Calm Calm - N/A   Scattered Clouds
5:50 PM 85 °F - 77 °F 70% 29.84 in 12 mi NE 6.7 mph - -   Scattered Clouds
6:45 PM 86.0 °F 96.9 °F 77.0 °F 74% 29.85 in 8.0 mi Calm Calm - N/A   Scattered Clouds
7:42 PM 84.2 °F 94.1 °F 77.0 °F 79% 29.86 in 8.0 mi Calm Calm - N/A   Scattered Clouds
8:42 PM 82.4 °F 90.9 °F 77.0 °F 84% 29.91 in 8.0 mi Calm Calm - N/A   Scattered Clouds
8:50 PM 81 °F - 76 °F 82% 29.91 in 6 mi SE 2.2 mph - -   Scattered Clouds
9:43 PM 82.4 °F 92.4 °F 78.8 °F 89% 29.89 in 8.0 mi Calm Calm - N/A   Clear
10:45 PM 80.6 °F 86.2 °F 75.2 °F 84% 29.90 in 8.0 mi Calm Calm - N/A   Clear
11:45 PM 78.8 °F - 75.2 °F 89% 29.86 in 8.0 mi Calm Calm - N/A   Clear